{"data":{"norad_id":64565,"intl_designator":"2025-135AP","name":"LEMUR-2-HUBBLE-4","alt_names":[],"object_type":"PAYLOAD","status":"ACTIVE","operator":null,"country":"US","launch_date":"2025-06-23","launch_site_code":"AFWTR","launch_vehicle":null,"mission":null,"orbit_class":"UNKNOWN","rcs_meters":null,"size_class":null,"mass_kg":null,"dimensions":null,"purposes":["earth_obs"],"wikipedia_slug":null,"has_3d_model":false,"image_url":null,"decayed_at":null,"tle_current":{"epoch":"2026-05-24T21:11:55.192416Z","epoch_age_seconds":88355,"freshness":"FRESH","line1":"1 64565U 25135AP  26144.88327769  .00001671  00000+0  16436-3 0  9996","line2":"2 64565  97.7654 259.0766 0003484  41.6170 318.5314 14.93443202 50393","mean_motion":14.93443202,"eccentricity":0.0003484,"inclination_deg":97.7654,"raan_deg":259.0766,"arg_perigee_deg":41.617,"mean_anomaly_deg":318.5314,"bstar":0.00016436,"rev_number":5039,"period_min":96.421477433596,"perigee_km":584.78237666191,"apogee_km":589.63582982665,"semimajor_km":6965.3461032443,"source":"CELESTRAK","updated_at":"2026-05-25T13:38:13.543390Z"}}}